STARLINK-32905, 62923

Orbit data source: Space-Track

STARLINK-32905, 62923 is a payload satellite owned by SpaceX/Seattle (US) in LEO that was launched on Sat, 08 Feb 2025 UTC via an FALCON 9 launch vehicle from the Air Force Eastern Test Range (AFETR). Payload-class satellites include a variety of spacecraft equipped with specific instruments for various scientific and technological missions. These include communications satellites like Starlink; space stations such as the ISS; scientific satellites like the Hubble; Earth observation satellites from companies like Planet Labs, Umbra, and HawkEye 360; GPS; miniature CubeSats for education and research; and military/defense satellites.

Loading next visibility...
Identifier
62923, 2025-027S
Orbit
LEO
Country
Flag of USUS
Related business
Manufacturer
SpaceX/Seattle
Mission
Operational Commercial Communications
Bus & Motor
STARLINK V2M, Unknown motor
Mass
730 kg wet, ~700 kg dry
Launch date (UTC)
2025-02-08 (1 year ago)
Launch vehicle
FALCON 9
Launch site
Air Force Eastern Test Range (AFETR)
Object type
Payload
Rocket body
Debris
Shape & HBR
Box + 2 Pan, 17.7 m
Radar Cross Section
33.884 m², Large (>1 m²)

Expand to show TLE details & history
Last TLE update: 1 day ago

TLE from 1 day ago
0 STARLINK-32905
1 62923U 25027S   26144.95465924  .00021826  00000-0  79988-3 0  9992
2 62923  43.0021  58.3694 0001342 230.3447 129.7287 15.27598251 73205
Epoch: 2026-05-24T22:54Z
TLE epoch observation values (Epoch: 2026-05-24T22:54:42.558Z)
Latitude
0.00003°
Longitude
-167.85728°
Altitude
483.359 km
Speed
7.625 km/s
True Right ascension
03h 53m 28s
True Declination
0° 00' 00"
Sunlit
Object was in daylight at epoch
Visualization orbit readout
Latitude
Unknown
Longitude
Unknown
Altitude
Unknown
Speed
Unknown
Apparent Right ascension
Unknown
Apparent Declination
Unknown
Sunlit
N/A
Visualization observer readout
Local Sidereal Time
12:08:11
Azimuth
Unknown
Elevation
Unknown
Doppler factor
Unknown
Orbital elements
Apogee altitude
485.86 km
Perigee altitude
484.018 km
Semi-major axis
6,863.076 km
Eccentricity
0.00013
Inclination
43.0021°
RAAN
58.3694°
Arg. of periapsis
230.3447°
True anomaly
129.74053°
Mean anomaly
129.7287°
Eccentric anomaly
129.73461°
Mean motion
3.81738 °/min
Orbital period
94.31 mins
BSTAR
0.00079988
Loading maneuver chart data...
Computing Atmospheric mass density...
Loading historical data...
Loading historical data...
Loading historical data...
Loading historical data...
Loading historical data...
Loading historical data...
Loading historical data...

Documentation

Showing up to 5 results
|